Location: Kershaw
(34.5481°N, 80.5823°W)
Time: 17:02:34
(UTC+00:00)

Courier 1B Rocket - Pass Details

Date: 29 September 2022
Orbit: 920 x 1202 km, 28.2° (Epoch: 08 December)

Event Time Altitude Azimuth Distance (km) Brightness Sun altitude
Rises 00:05:18 0° 214° (SW) 3,696 8.4 -12.1°
Reaches altitude 10° 00:08:56 10° 196° (SSW) 2,699 7.4 -12.9°
Maximum altitude 00:13:06 18° 155° (SSE) 2,140 6.5 -13.7°
Enters shadow 00:15:33 15° 128° (SE) 2,322 6.5 -14.2°
Drops below altitude 10° 00:17:09 10° 115° (ESE) 2,624 - -14.5°
Sets 00:20:36 0° 96° (E) 3,552 - -15.2°
